Theta_e
319 319 319 319 319 318 318 318 318 318 318 318 318 318 318 318 319 322 326 329 330 331 344 351 347 355 355 354 353 342 357 356 355 353 349 342 341 342 343 343 342 342 344 350 353
319 319 319 319 319 319 319 318 318 318 318 318 318 318 318 321 326 331 330 332 330 330 351 353 351 350 346 356 348 348 352 354 348 348 346 342 341 343 342 342 341 342 342 345 352
318 319 319 319 319 319 319 319 319 318 318 318 318 318 319 322 333 336 335 337 333 342 352 350 349 348 351 355 356 350 355 349 348 348 345 343 341 343 342 341 341 341 342 343 352
316 317 318 319 320 320 319 319 319 319 318 318 318 318 319 322 337 338 337 342 350 346 350 348 350 353 357 356 354 357 353 350 347 347 345 343 343 343 342 341 341 341 342 341 340
314 315 317 319 319 320 320 319 319 319 318 318 317 318 319 323 332 336 339 340 347 350 347 344 352 352 355 355 352 353 349 348 349 346 346 344 344 343 342 341 341 341 341 341 340
312 313 315 317 319 320 320 320 320 319 319 318 317 317 317 327 336 335 340 339 342 350 347 351 351 352 352 350 346 346 344 343 346 347 346 345 343 343 342 341 341 341 341 340 340
311 312 314 316 318 320 320 320 320 319 319 318 317 317 318 329 332 335 338 342 342 348 350 349 350 353 351 345 347 348 344 343 343 344 345 345 344 344 342 341 340 340 340 340 340
312 311 312 314 317 319 320 320 320 320 319 318 317 317 321 331 331 332 338 343 345 345 348 348 348 350 349 347 347 345 343 344 346 345 344 344 347 343 342 341 340 340 341 341 341
314 313 312 313 315 318 320 320 320 320 319 318 316 323 329 329 330 330 338 342 345 346 347 347 348 348 347 346 344 343 347 346 346 345 346 345 348 345 342 341 341 340 341 341 341
313 314 313 312 314 317 320 320 320 319 318 317 316 323 330 332 332 329 334 340 344 344 345 346 347 345 342 343 349 348 347 347 347 344 345 348 347 345 343 341 340 340 341 341 341
311 313 315 313 313 316 319 320 320 320 321 320 322 326 331 331 330 329 333 339 342 344 341 342 343 345 346 344 346 344 346 346 347 345 345 347 346 348 345 343 342 342 341 341 341
312 312 315 315 313 315 319 320 324 324 322 327 327 322 326 324 323 328 334 339 341 341 339 338 341 342 343 345 346 346 344 345 346 347 345 347 348 345 344 346 344 344 343 342 341
313 312 314 316 313 316 319 321 321 320 321 325 326 327 328 327 324 326 335 338 340 337 336 338 339 339 340 343 343 341 341 345 348 347 343 346 347 347 343 345 345 345 344 344 343
312 313 313 317 316 319 324 325 324 323 318 322 324 326 327 327 324 328 334 337 336 336 334 332 334 335 334 343 341 342 341 341 347 346 350 344 349 345 344 342 343 342 345 344 342
311 313 313 316 317 324 326 325 324 324 325 329 324 328 328 326 327 329 331 337 334 334 333 334 333 332 332 333 339 342 339 339 337 343 342 344 345 341 343 343 343 341 341 341 343
310 312 313 314 317 320 324 325 326 323 328 330 326 323 323 324 325 326 328 332 335 332 331 330 332 331 330 332 335 340 340 332 329 328 334 343 340 342 344 344 343 342 342 342 342
310 311 313 313 318 320 324 324 322 325 327 329 325 321 321 321 322 322 322 323 327 329 328 328 329 328 331 330 330 339 332 336 337 336 344 341 343 343 343 340 342 345 341 345 345
311 311 313 316 315 322 322 320 327 327 326 326 328 321 321 319 320 321 321 321 324 326 325 327 329 328 331 330 330 330 330 332 340 340 342 341 342 340 343 344 344 342 342 344 344
311 312 314 316 316 319 323 322 323 326 329 328 327 325 324 321 322 320 319 321 322 324 327 324 326 328 328 329 329 330 333 330 331 334 336 339 345 345 342 344 344 345 342 344 343
311 313 315 320 317 320 319 321 323 326 326 326 328 329 330 328 324 320 321 322 322 324 324 324 326 327 329 329 328 331 331 334 327 336 337 346 349 348 344 345 345 344 336 338 343
313 326 326 324 316 323 318 318 324 327 327 326 326 326 329 333 322 323 321 324 323 324 322 322 324 329 327 327 327 326 327 328 325 326 330 347 348 342 342 343 345 347 351 348 342
314 323 324 326 317 315 315 320 324 324 324 323 325 325 328 330 331 332 325 328 328 325 322 322 321 325 325 326 326 327 327 323 325 327 325 335 334 340 339 346 342 345 347 344 343
317 323 324 323 318 316 317 318 319 319 320 323 324 324 327 330 331 331 333 333 333 324 323 323 321 321 323 323 324 330 327 325 322 319 324 332 337 338 343 340 338 339 344 344 342
319 325 328 320 323 322 323 321 321 323 322 323 321 323 329 329 328 330 331 332 333 330 330 327 321 324 325 327 327 331 329 329 327 327 327 335 342 341 344 341 341 338 336 343 343
326 323 324 325 326 324 323 322 324 324 323 323 322 324 327 330 328 328 329 329 331 333 331 323 325 326 325 326 331 331 331 331 330 329 333 335 341 341 343 338 338 339 344 345 345
323 321 321 321 325 325 322 322 324 324 321 321 326 326 325 327 326 331 329 328 331 330 333 328 330 332 333 331 332 332 331 333 334 337 348 344 345 337 338 338 338 338 341 346 350
318 318 322 322 322 323 323 326 328 327 325 323 328 328 329 331 331 330 329 329 328 331 332 333 333 332 335 334 335 336 335 337 337 335 342 347 343 335 335 335 338 348 353 349 348
Wind_Speed
4 3 3 4 4 4 4 5 5 6 6 6 7 8 8 8 8 9 6 5 7 6 8 12 3 4 5 3 3 5 1 2 5 8 4 18 16 19 19 29 19 15 27 36 36
5 5 4 4 5 5 4 5 5 5 5 6 7 8 9 9 10 8 5 7 9 5 13 13 11 6 9 6 4 5 3 6 12 4 6 17 22 22 12 24 12 28 30 31 38
6 5 5 5 5 5 5 5 5 5 6 6 6 7 9 11 4 6 4 7 8 9 13 8 19 9 2 3 9 8 6 9 25 20 17 17 20 17 27 12 35 35 36 35 41
7 7 6 6 6 5 5 5 6 5 4 4 6 7 9 7 0 4 5 9 10 12 10 12 11 8 5 6 14 5 20 21 9 11 18 14 19 14 24 17 38 43 42 35 33
7 7 7 7 6 6 6 6 6 6 6 6 6 7 8 6 3 3 4 10 10 15 16 6 3 7 3 10 12 11 18 20 19 24 6 22 17 13 17 33 37 39 40 36 33
8 8 7 8 8 7 6 6 6 6 6 6 7 7 7 5 0 4 5 10 10 16 14 12 9 8 9 9 2 9 2 4 21 25 21 13 15 18 25 36 35 38 38 34 35
9 8 8 7 7 8 7 6 6 5 5 5 6 8 10 12 4 5 5 7 9 10 12 10 16 12 10 8 12 12 5 7 6 10 5 20 5 13 35 38 35 35 37 33 34
11 9 9 8 7 7 7 7 6 6 5 5 5 8 8 3 9 9 6 10 9 9 8 7 15 22 21 9 9 2 0 5 7 8 4 3 5 12 35 36 33 36 35 32 32
12 10 10 9 8 7 7 7 6 6 5 5 5 6 9 6 14 9 9 10 9 10 15 18 18 16 5 2 5 5 2 1 2 5 2 6 3 8 13 24 28 33 35 33 30
12 12 10 10 9 7 6 6 6 7 6 6 8 6 14 13 17 15 11 6 8 12 17 16 11 2 3 4 4 2 1 2 3 2 5 5 10 4 19 19 22 28 32 33 33
14 12 11 10 9 7 6 5 5 2 7 12 6 15 11 8 4 14 14 11 14 14 4 13 1 7 13 13 9 6 6 7 5 10 4 3 2 7 8 19 16 16 19 28 32
14 14 12 11 10 7 7 5 3 2 10 18 18 28 26 24 14 15 17 15 12 6 4 5 8 17 11 14 7 7 10 9 6 6 8 3 4 7 8 15 29 24 20 18 24
14 14 13 11 9 7 7 7 11 18 6 17 26 24 27 13 19 19 22 24 8 3 7 6 13 11 16 7 6 4 2 5 7 8 5 5 4 5 8 14 23 26 27 22 20
14 13 14 9 5 4 3 7 12 5 4 7 6 12 19 12 8 18 24 21 5 10 8 7 15 4 13 8 1 4 6 4 9 7 6 9 5 6 6 8 12 18 22 30 21
14 13 11 9 6 6 4 4 9 3 4 4 5 3 13 12 1 17 20 22 10 10 4 14 10 12 5 9 11 6 4 6 4 6 5 3 3 5 5 6 16 18 29 29 26
14 14 11 12 10 5 6 2 4 5 6 4 9 7 6 10 12 7 6 18 20 6 6 11 16 4 7 14 6 6 2 6 5 4 2 2 4 6 5 5 1 3 4 12 18
13 15 14 13 2 5 3 2 5 3 5 3 5 5 6 7 5 4 6 3 6 4 4 8 11 9 10 7 6 4 7 4 4 4 4 6 3 9 4 1 10 9 2 2 13
14 16 16 13 10 9 4 5 3 4 6 5 4 2 9 7 8 7 5 6 5 5 5 5 14 5 3 6 8 8 9 6 6 4 6 4 5 7 4 9 13 6 11 8 8
14 14 17 7 14 14 6 2 7 7 4 6 9 7 5 7 6 9 10 10 11 11 11 6 8 11 7 9 8 8 4 8 5 3 3 3 6 7 6 3 10 7 7 16 10
15 12 13 8 18 19 4 7 6 5 6 5 1 2 3 2 4 7 6 8 8 14 11 9 6 13 18 2 5 6 4 1 2 3 4 3 4 7 6 3 8 9 5 3 20
11 6 1 14 20 11 4 7 5 8 15 6 6 6 8 4 8 4 11 15 8 14 14 7 6 21 4 2 8 6 3 2 4 5 6 3 6 4 5 9 12 6 12 16 30
4 2 12 19 5 3 3 5 7 9 23 7 6 9 6 3 3 4 5 5 14 21 10 11 7 6 12 8 4 7 8 7 5 8 3 5 5 2 12 11 8 13 16 25 18
10 4 20 21 2 3 6 6 9 7 10 5 5 7 4 3 3 3 4 6 22 1 10 9 2 1 9 8 7 4 5 5 4 3 4 5 2 1 13 12 14 19 14 16 19
4 3 4 19 8 3 2 7 7 15 13 13 10 11 3 5 3 4 6 8 24 11 10 9 5 7 7 8 4 4 8 6 4 3 4 5 6 7 9 10 12 12 13 8 8
5 2 5 3 5 5 2 7 15 11 6 8 7 8 9 4 5 4 5 7 9 9 7 4 1 3 5 5 4 4 7 10 6 3 4 5 11 14 15 18 23 27 35 30 20
5 6 8 10 12 5 2 4 8 15 6 11 4 10 8 7 8 3 4 3 4 8 7 6 3 4 5 8 9 7 8 9 4 4 7 6 6 5 16 11 10 16 25 30 26
9 5 3 7 6 4 3 7 10 18 6 17 2 3 10 4 1 1 2 1 4 2 2 3 3 3 6 6 6 5 7 4 3 2 5 4 3 16 7 16 17 17 23 22 21
Wind_Direction
354 343 326 309 309 306 306 312 317 326 333 336 336 333 331 328 312 295 284 131 120 75 120 98 358 148 184 153 70 96 72 210 234 219 273 122 126 158 138 139 154 196 156 159 167
349 340 329 317 309 307 304 309 314 321 326 331 332 327 330 330 318 296 178 142 97 117 147 129 157 143 141 97 82 82 103 232 227 254 160 134 134 135 126 144 117 127 142 157 172
348 338 325 315 305 300 302 302 302 311 321 328 328 330 330 341 1 45 135 124 127 160 181 146 141 164 294 128 179 173 217 173 218 227 173 148 143 137 140 160 151 152 157 158 163
347 340 326 316 307 304 301 298 301 304 306 317 323 327 329 336 132 6 165 128 146 167 176 143 141 174 215 194 207 234 208 235 218 209 175 159 150 136 159 176 162 156 160 164 173
349 338 325 313 304 301 299 297 298 305 310 319 323 327 330 311 281 323 207 152 170 170 171 245 327 130 226 222 205 222 271 256 218 160 219 159 167 148 143 150 158 158 164 169 177
350 339 327 314 305 297 292 289 292 298 304 308 315 321 315 288 217 331 214 187 186 195 206 268 304 315 256 248 274 248 337 267 158 147 204 152 115 123 149 152 157 162 171 177 184
352 341 327 312 301 294 287 282 283 286 286 294 307 309 290 265 263 292 250 219 206 195 215 288 303 269 310 332 329 298 320 14 78 140 139 108 57 143 157 159 161 170 178 185 193
351 345 330 317 304 286 281 279 272 277 277 284 294 297 264 270 234 250 249 214 221 228 246 292 293 269 253 294 329 294 109 107 251 35 129 109 192 168 162 160 169 177 185 194 200
348 343 333 319 310 289 272 268 270 266 258 262 273 274 265 224 228 234 246 229 217 243 263 283 273 248 280 67 347 2 300 304 342 121 63 67 74 80 189 174 175 183 188 198 204
346 339 333 322 312 294 266 258 260 264 257 246 243 291 245 225 231 228 240 251 246 285 284 269 264 292 46 83 251 254 315 312 196 215 177 171 152 75 166 205 194 192 195 201 205
342 337 331 323 311 298 265 267 280 257 276 247 242 227 242 356 237 231 220 232 249 266 275 308 31 238 251 213 223 202 213 217 232 213 102 179 102 155 133 183 187 203 208 216 207
337 334 329 321 311 295 264 241 197 40 300 283 268 256 266 269 290 279 208 204 228 228 273 340 258 262 243 255 219 202 231 244 226 69 79 120 179 217 193 195 186 186 197 213 221
330 329 325 319 308 282 256 270 295 300 276 278 247 239 248 255 243 261 199 206 213 230 251 205 256 315 288 235 224 258 213 193 197 106 54 113 310 226 247 232 238 207 189 193 216
324 323 322 323 308 277 53 23 345 342 21 277 207 228 233 245 278 231 209 205 214 238 247 242 263 247 295 281 170 203 237 266 141 121 201 160 253 263 265 251 250 238 229 218 220
319 314 316 308 276 253 334 9 358 103 0 249 176 176 194 180 139 210 216 201 200 233 113 257 304 308 279 259 278 230 258 258 162 169 102 184 124 228 80 275 242 235 246 241 233
314 305 297 294 273 249 274 355 100 45 259 272 163 166 129 196 237 253 194 210 227 213 258 251 279 222 246 284 265 271 319 24 40 94 51 255 116 292 191 195 345 157 320 295 269
309 295 285 268 261 203 248 38 55 162 307 244 198 153 174 183 242 197 251 261 185 157 274 296 280 285 287 305 320 227 61 339 337 12 196 213 101 229 234 192 158 150 154 280 279
305 285 274 257 230 207 196 61 206 236 261 305 38 89 183 166 237 217 212 245 250 175 183 219 299 194 267 204 246 250 161 165 200 220 236 257 230 257 197 170 152 161 162 117 48
311 290 272 242 207 193 166 136 214 208 241 9 339 115 257 216 172 193 210 222 223 180 194 173 261 274 221 258 140 251 154 200 129 82 84 222 297 297 233 216 176 173 101 124 122
325 303 277 205 189 177 95 237 229 230 14 42 273 29 295 287 184 180 195 224 231 198 179 224 265 255 272 300 291 166 194 355 4 167 230 253 278 233 248 135 60 43 70 206 167
333 324 246 158 166 165 183 239 284 296 342 359 310 256 228 225 186 206 218 248 234 232 168 167 154 265 17 215 243 330 303 57 128 140 177 189 257 217 157 74 119 135 21 266 250
348 355 165 161 119 179 221 228 306 301 298 286 250 263 244 243 240 243 220 215 231 214 181 200 169 216 239 265 203 195 236 181 139 267 210 163 284 60 95 77 84 59 46 34 255
339 288 181 180 159 236 272 265 254 268 271 260 287 291 297 251 10 258 262 294 11 264 183 171 207 94 332 342 357 37 299 178 137 75 199 149 206 201 88 86 68 63 42 32 349
351 2 190 225 230 154 299 280 273 282 269 257 264 286 307 333 122 289 324 337 357 24 340 126 132 152 185 209 167 312 304 303 146 136 181 196 145 201 133 138 135 119 110 303 310
18 316 9 309 311 310 264 253 276 287 268 295 304 218 231 244 339 330 5 337 355 11 26 72 162 159 226 225 261 266 278 302 241 142 124 223 154 177 163 149 163 146 150 158 202
25 5 344 300 292 303 322 307 256 285 221 287 236 286 253 190 196 176 92 35 291 336 18 353 330 50 338 354 349 301 301 310 51 24 69 72 82 177 173 136 206 154 172 175 195
8 327 318 296 326 13 309 326 296 318 294 243 291 53 46 358 353 10 103 200 216 275 322 61 98 58 292 334 350 351 326 104 154 198 133 88 190 161 153 148 166 191 177 163 158